Torna al catalogo

BREEZE-M R/B

AttivoHEO
NORAD 36593·ROCKET BODY·🇷🇺 Russia

Lanciato Jun 3, 2010 da Baikonur Cosmodrome

Loading…

Prossimi Passaggi (prossime 24 ore)

TLE

AggiornatoSource: Space-Track

Epoca: Sep 14, 2026, 03:33 UTC

1 36593U 10025B   26257.14793707  .00000082  00000-0  00000-0 0  9994
2 36593  19.4890  39.6907 5629859 223.6939  86.9054  2.07416530123030

Traccia BREEZE-M R/B in tempo reale con AllMySat

Download on the App Store